This demonstration page uses our WeatherBlox Daily Observations layout. Learn more.

Left ArrowRight Arrow

34.02893, -84.19858

Hourly Observations for February 22, 2017

Temp ( °F °C ) Dew Point ( °F °C ) Humidity (%) Winds ( mph kmh ) Pressure ( in mb ) Visibility ( mi km ) Precip ( " mm )
12:39 am 00:39 Cloudy 60 15.6 56 13.3 86 86 VRB 5 7 29.91 1013 10 16 0.00 0.03
12:53 am 00:53 Cloudy 60 15.6 56 13.3 86 86 VRB 5 7 29.90 1013 10 16 0.00 0.03
1:53 am 01:53 Cloudy 60 15.6 56 13.3 86 86 VRB 5 7 29.89 1012 10 16 0.00 0.00
2:29 am 02:29 Cloudy 60 15.6 56 13.3 86 86 ENE 6 9 29.88 1012 10 16 0.00 0.00
2:53 am 02:53 Cloudy 60 15.6 56 13.3 86 86 VRB 3 6 29.88 1012 10 16 0.00 0.03
3:53 am 03:53 Cloudy with Light Rain 60 15.6 56 13.3 86 86 VRB 5 7 29.87 1012 8 13 0.00 0.03
4:53 am 04:53 Cloudy 60 15.6 56 13.3 86 86 ENE 6 9 29.87 1012 10 16 0.00 0.03
5:53 am 05:53 Cloudy 60 15.6 57 13.9 90 90 E 5 7 29.88 1012 10 16 0.01 0.25
6:53 am 06:53 Cloudy 60 15.6 57 13.9 90 90 E 5 7 29.88 1012 9 14 0.00 0.03
7:53 am 07:53 Cloudy with Mist and Fog 58 14.4 56 13.3 93 93 E 7 11 29.89 1012 5 8 0.02 0.51
8:51 am 08:51 Cloudy with Mist and Fog 57 14 55 13 94 94 E 7 11 29.91 1013 3 4 0.00 0.03
8:53 am 08:53 Cloudy with Mist and Fog 58 14.4 56 13.3 93 93 ENE 7 11 29.90 1013 3 4 0.00 0.03
9:23 am 09:23 Cloudy with Mist and Fog 58 14.4 56 13.3 93 93 E 5 7 29.91 1013 3 5 0.00 0.00
9:46 am 09:46 Cloudy with Mist and Fog 57 14 55 13 94 94 VRB 3 6 29.94 1014 3 4 0.00 0.00
9:53 am 09:53 Cloudy with Mist and Fog 58 14.4 56 13.3 93 93 VRB 5 7 29.92 1013 3 4 0.00 0.00
10:13 am 10:13 Cloudy with Mist and Fog 58 14.4 56 13.3 93 93 VRB 6 9 29.94 1014 3 5 0.00 0.00
10:53 am 10:53 Cloudy with Mist and Fog 59 15 56 13.3 90 90 E 8 13 29.91 1013 5 8 0.00 0.00
11:53 am 11:53 Cloudy with Mist and Fog 59 15 56 13.3 90 90 E 7 11 29.91 1013 6 10 0.00 0.00
12:53 pm 12:53 Cloudy 61 16.1 57 13.9 87 87 VRB 6 9 29.88 1012 7 11 0.00 0.00
1:53 pm 13:53 Mostly Cloudy 63 17.2 57 13.9 81 81 NE 3 6 29.86 1011 9 14 0.00 0.00
2:00 pm 14:00 Cloudy 63 17 57 14 83 83 VRB 6 9 29.85 1011 9 14 0.00 0.00
2:53 pm 14:53 Mostly Cloudy 64 17.8 57 13.9 78 78 NE 9 15 29.84 1011 10 16 0.00 0.00
3:33 pm 15:33 Partly Cloudy 65 18.3 57 13.9 76 76 VRB 7 11 29.83 1010 10 16 0.00 0.00
3:40 pm 15:40 Mostly Cloudy 65 18.3 57 13.9 76 76 ENE 6 9 29.83 1010 10 16 0.00 0.00
3:53 pm 15:53 Mostly Sunny 66 18.9 57 13.9 73 73 NE 8 13 29.82 1010 10 16 0.00 0.00
4:53 pm 16:53 Sunny 65 18.3 56 13.3 73 73 E 7 11 29.83 1010 10 16 0.00 0.00
5:53 pm 17:53 Mostly Sunny 64 17.8 56 13.3 75 75 ENE 6 9 29.84 1011 10 16 0.00 0.00
6:35 pm 18:35 Mostly Cloudy 63 17.2 56 13.3 78 78 NNE 8 13 29.85 1011 10 16 0.00 0.00
6:51 pm 18:51 Partly Cloudy 63 17 55 13 77 77 VRB 6 9 29.85 1011 10 16 0.00 0.00
6:53 pm 18:53 Partly Cloudy 62 16.7 55 12.8 78 78 E 6 9 29.85 1011 10 16 0.00 0.00
7:53 pm 19:53 Partly Cloudy 61 16.1 55 12.8 81 81 VRB 6 9 29.88 1012 10 16 0.00 0.00
8:39 pm 20:39 Cloudy 61 16.1 55 12.8 81 81 VRB 3 6 29.88 1012 10 16 0.00 0.00
8:51 pm 20:51 Cloudy 61 16 55 13 83 83 ENE 7 11 29.88 1012 10 16 0.00 0.00
8:53 pm 20:53 Cloudy 61 16.1 55 12.8 81 81 ENE 7 11 29.88 1012 10 16 0.00 0.00
9:53 pm 21:53 Clear 59 15 54 12.2 83 83 Calm 29.89 1012 10 16 0.00 0.00
10:53 pm 22:53 Clear 58 14.4 54 12.2 87 87 ENE 3 6 29.88 1012 8 13 0.00 0.00
11:53 pm 23:53 Cloudy 57 13.9 54 12.2 90 90 ENE 3 6 29.88 1012 8 13 0.00 0.00

Powered by AerisWeather